Theta_e
326 321 322 323 310 307 303 303 307 304 305 304 306 313 314 304 309 305 301 303 306 312 318 321 324 325 326 326 326 327 329 330 331 331 330 330 331 332 332 333 333 335 337 339 339 339 338 337 338
321 317 323 319 305 301 303 306 303 306 304 304 304 305 307 303 298 297 300 303 308 312 316 320 321 324 324 324 324 324 326 327 326 327 326 326 326 327 327 328 329 331 333 335 335 335 336 335 334
314 319 316 310 306 302 304 307 306 303 303 303 301 300 301 298 297 299 302 305 308 311 315 318 320 321 321 322 322 323 323 323 323 323 323 323 324 324 324 324 324 326 328 330 330 331 331 330 330
315 319 317 306 303 307 308 307 304 302 301 302 303 299 296 297 299 301 302 304 307 310 313 317 319 319 319 319 320 320 320 320 320 320 321 320 320 320 321 321 322 322 322 323 323 324 326 325 327
317 317 308 306 306 308 306 305 305 304 304 302 302 299 296 296 300 301 301 302 305 307 311 314 315 315 315 316 317 317 317 317 316 316 316 316 316 316 317 317 318 319 320 320 320 320 321 322 327
311 314 305 303 306 306 303 304 304 304 302 300 300 300 296 299 299 300 301 301 302 304 307 309 309 309 310 311 312 313 313 312 312 311 311 311 312 312 312 314 314 315 316 316 316 317 318 320 326
309 309 305 305 304 304 303 304 303 303 301 300 302 299 295 296 299 300 300 301 301 302 302 303 302 301 305 306 307 308 308 308 307 306 305 305 305 307 307 309 310 311 312 313 313 314 316 321 323
310 310 304 305 303 304 302 301 299 302 300 297 299 299 295 297 298 299 299 299 300 301 301 301 301 299 299 301 301 302 302 302 302 301 299 299 299 300 303 303 306 307 310 312 312 313 319 318 316
312 304 302 302 301 303 298 299 296 297 296 295 295 296 296 298 297 297 297 297 298 299 300 300 299 298 297 297 295 296 296 296 296 296 296 296 298 297 298 299 303 305 309 311 312 312 311 310 311
307 304 304 305 305 302 298 299 298 297 295 295 294 293 296 296 296 296 296 295 296 297 298 299 299 297 296 294 295 295 293 295 294 294 294 295 296 296 295 297 299 302 304 307 308 307 307 309 310
305 303 304 300 298 296 297 296 297 298 296 300 297 293 293 294 295 296 296 296 296 297 297 297 296 296 295 294 293 292 291 292 295 294 294 295 296 297 296 299 301 302 302 304 304 305 305 306 308
300 299 300 299 297 296 295 296 295 297 300 295 297 295 294 293 294 295 295 295 295 296 295 294 294 293 294 294 294 294 294 294 294 294 294 295 296 295 296 298 300 301 303 303 303 302 303 303 304
298 297 296 294 295 296 296 295 297 296 296 294 295 294 293 294 295 296 296 296 296 294 294 293 293 293 293 293 293 293 293 293 293 293 293 294 294 294 295 297 299 300 301 302 301 300 300 301 301
295 294 293 292 293 293 293 295 294 297 293 292 292 292 294 294 294 294 294 294 294 294 293 293 292 292 292 292 292 292 292 292 292 292 292 292 293 294 295 297 298 298 300 300 299 298 298 298 299
291 290 290 290 291 292 293 294 292 295 293 292 292 292 293 294 294 293 294 294 294 293 292 291 291 291 291 291 291 291 291 291 291 291 291 291 292 292 294 297 297 297 298 298 297 296 296 295 295
289 289 287 287 288 290 291 292 298 292 292 292 292 292 291 293 292 294 294 294 293 292 291 291 289 290 290 290 290 290 291 291 291 291 291 291 291 292 294 296 296 297 297 296 295 294 294 293 293
288 287 284 287 287 287 290 291 288 289 291 292 292 291 291 291 291 292 293 293 292 292 291 290 290 289 289 289 289 290 290 290 290 291 290 290 290 291 293 295 295 297 297 296 294 293 293 292 292
287 286 286 288 286 285 286 287 290 287 289 291 291 291 290 290 290 292 292 293 292 291 291 290 289 289 289 289 289 289 289 289 290 290 289 289 289 290 292 293 294 296 295 294 294 292 292 291 290
289 287 287 286 284 284 286 287 290 290 287 289 291 290 290 290 292 291 291 291 290 289 289 288 288 288 288 288 288 288 288 288 288 289 289 289 289 289 290 292 293 295 295 294 293 292 291 291 292
286 286 286 284 282 282 284 283 288 289 288 289 289 290 290 290 290 289 290 290 289 288 288 288 288 287 288 289 289 289 288 288 288 288 288 288 288 288 288 289 290 292 293 292 292 293 291 291 292
285 284 285 283 282 282 281 284 287 287 288 289 290 292 292 291 288 289 288 288 289 288 288 287 287 287 288 288 287 287 287 287 287 287 287 287 288 288 288 288 289 290 291 291 291 292 291 289 289
282 285 284 282 282 280 281 279 286 286 284 283 286 289 291 290 290 290 288 288 288 288 288 288 287 287 287 287 287 286 286 286 287 287 287 287 287 287 287 287 288 288 289 288 288 290 290 290 287
282 281 282 281 281 279 279 278 284 281 282 284 284 286 289 291 290 289 288 288 289 289 288 288 287 287 287 287 288 287 287 288 287 287 286 287 287 287 287 287 287 287 287 288 288 288 288 289 288
282 281 280 280 279 276 280 278 282 285 284 288 288 287 287 290 291 291 290 290 288 289 288 287 286 286 287 287 287 287 287 286 286 286 286 286 286 286 286 286 287 287 286 286 287 287 287 287 287
280 280 277 275 274 274 275 275 282 287 286 286 288 288 288 289 290 290 289 287 288 286 287 286 286 285 286 286 286 287 287 287 287 286 286 286 286 286 285 286 286 286 286 286 286 286 286 286 286
278 280 279 274 274 277 274 273 282 286 286 285 286 286 288 287 288 289 289 288 287 286 286 286 286 285 285 286 286 286 287 287 288 287 287 287 287 286 286 286 286 286 285 285 285 286 285 286 285
278 276 280 276 268 273 279 281 284 286 285 285 284 283 285 286 287 288 288 288 288 287 286 286 285 286 285 285 286 286 286 286 287 287 287 287 287 286 286 286 285 285 285 285 285 285 284 285 285
277 278 276 277 273 273 277 276 281 285 286 287 284 284 285 286 286 288 288 288 288 287 287 286 286 285 285 286 286 286 286 286 287 287 286 286 286 285 285 285 285 285 285 285 284 284 284 284 284
274 276 275 276 276 275 274 279 288 288 286 285 286 286 285 286 286 287 287 287 287 288 287 286 286 285 285 285 286 286 286 286 286 286 286 286 286 285 285 285 285 284 284 284 284 284 283 283 283
274 277 278 277 275 273 273 278 285 285 285 284 284 285 286 286 286 287 287 287 286 286 286 286 285 285 285 286 286 285 286 285 285 285 286 286 285 285 285 285 284 284 284 284 283 283 282 282 282
Wind_Speed
13 7 3 5 7 6 9 6 3 7 6 2 1 3 2 6 3 3 5 4 4 5 4 7 9 10 11 12 13 13 11 11 11 12 12 12 10 12 12 12 12 13 14 14 14 13 12 11 10
7 3 4 2 8 10 9 4 8 5 6 9 6 3 3 4 4 8 8 6 5 5 6 8 8 11 12 12 13 12 11 12 12 12 12 12 12 11 12 12 12 13 13 13 13 13 13 12 12
5 4 4 4 7 12 6 6 6 8 9 5 5 3 2 5 5 7 7 8 7 7 6 8 9 12 12 12 12 12 12 11 11 11 12 12 12 13 12 11 11 11 12 12 12 13 11 13 11
2 5 3 7 10 8 5 4 5 12 5 3 3 6 5 2 5 5 9 8 9 8 7 10 10 13 12 12 12 12 12 11 12 12 13 13 13 13 13 13 12 11 10 10 11 10 10 9 9
2 3 7 8 13 4 4 2 10 12 7 8 7 7 6 4 8 11 9 7 9 9 8 10 12 12 12 13 13 12 12 12 11 11 12 12 13 13 13 13 12 11 11 11 11 10 9 10 9
4 3 7 14 14 5 2 7 8 7 5 7 6 9 6 9 11 9 8 8 7 9 9 9 11 12 12 12 12 12 12 12 11 11 11 12 12 12 12 13 11 11 11 10 10 10 9 9 10
4 5 11 10 9 8 5 8 8 8 8 6 4 7 6 12 10 10 9 8 8 8 8 7 7 8 12 12 12 12 11 11 11 10 10 11 12 12 12 12 12 10 11 11 10 10 9 9 17
3 4 5 6 8 7 6 9 2 6 5 4 1 6 6 17 14 11 10 9 8 8 7 7 7 6 7 7 11 12 12 11 11 11 9 10 9 11 12 10 12 10 12 11 12 11 14 18 16
2 6 10 6 5 2 8 9 2 2 5 2 2 1 2 21 16 13 11 10 9 7 7 7 6 6 6 6 7 8 11 11 9 7 10 6 6 7 7 10 10 11 13 13 13 13 12 11 16
6 6 8 1 2 1 7 8 9 6 7 6 5 6 15 18 17 15 13 11 10 9 8 6 6 6 6 5 6 7 6 7 6 7 6 5 6 6 5 7 10 13 12 14 15 14 12 9 7
3 8 1 2 1 2 3 5 5 6 8 8 10 15 18 18 16 14 12 11 10 9 6 6 6 6 6 6 4 4 3 2 4 6 5 5 4 4 4 3 5 6 8 6 9 9 8 11 8
6 3 2 1 1 3 3 3 5 10 1 2 0 18 21 19 16 15 13 12 11 9 8 7 7 6 6 5 4 5 4 4 4 5 6 4 3 4 5 5 5 6 5 7 8 7 10 12 12
6 4 3 0 2 2 3 6 7 10 4 3 9 17 19 17 16 13 11 11 10 10 8 7 7 7 6 6 5 5 5 4 5 5 7 5 5 5 5 5 5 5 5 6 7 8 8 10 11
0 3 4 4 3 2 6 5 4 5 6 7 12 16 16 17 17 13 13 12 11 10 9 8 8 7 7 6 7 5 5 5 5 5 6 7 5 4 4 5 5 5 5 6 6 7 8 8 9
3 3 3 6 4 4 3 8 12 5 9 10 13 14 15 17 16 16 14 12 11 10 10 9 9 7 7 7 6 5 5 5 5 5 7 7 6 6 5 4 5 5 6 8 7 8 8 8 9
3 2 5 4 6 2 5 15 5 9 12 13 14 14 15 17 16 14 13 12 11 11 12 11 8 8 7 7 5 5 4 5 5 5 5 7 7 6 5 4 5 4 5 5 6 7 8 8 8
4 7 7 3 8 2 11 11 4 6 10 13 14 15 15 15 15 13 13 12 12 12 12 11 11 10 9 7 6 6 6 5 5 5 5 7 7 6 5 4 4 4 4 5 6 6 7 8 8
8 7 6 8 5 6 9 20 7 8 11 14 14 15 16 17 18 15 14 13 12 12 12 12 10 11 9 7 6 5 5 5 5 5 5 6 6 7 5 5 5 4 5 5 6 8 7 7 8
2 5 7 3 3 5 13 18 17 12 12 15 16 17 18 19 16 15 14 14 13 13 13 14 13 12 9 7 7 5 5 5 5 5 6 6 6 7 6 5 5 4 4 6 6 7 9 6 4
9 13 13 2 3 5 9 19 19 16 18 20 20 20 20 18 17 17 17 15 16 15 15 14 14 14 10 7 5 3 7 4 5 5 6 6 7 6 7 6 6 5 5 5 5 4 4 3 2
11 16 12 8 3 6 8 20 19 12 20 16 20 21 21 22 21 21 20 19 17 17 17 15 15 15 12 9 7 6 6 5 5 5 5 5 6 6 7 8 7 6 4 3 3 2 3 4 4
13 7 7 6 5 10 2 13 11 6 14 14 18 21 21 22 20 20 21 20 20 18 16 16 15 15 12 12 9 12 7 8 6 6 5 5 6 6 7 7 7 6 4 5 4 2 3 4 6
2 1 5 4 9 6 9 10 7 1 11 19 18 22 23 23 23 23 24 22 21 18 16 16 16 15 14 12 10 9 8 5 7 7 9 7 6 6 6 7 7 7 5 5 5 5 4 2 3
7 4 3 2 2 9 12 12 15 14 13 13 13 22 23 23 23 22 21 20 19 17 16 16 17 16 15 14 12 12 11 10 9 9 8 7 6 6 6 7 7 7 6 5 4 4 4 4 4
4 6 3 5 5 9 2 10 17 12 12 11 11 13 21 21 22 22 23 21 20 20 19 16 18 17 16 15 13 12 11 11 12 12 9 9 7 6 7 7 7 6 6 5 5 4 3 3 4
9 3 5 8 6 5 3 12 8 10 10 11 10 7 13 20 20 22 22 21 21 21 21 19 18 17 16 15 14 12 11 7 8 10 8 7 7 7 9 7 7 7 7 6 4 3 3 3 3
7 9 2 2 2 5 8 10 13 14 17 11 10 9 15 19 20 22 22 21 21 20 21 21 19 17 17 16 13 12 11 10 9 10 9 7 7 6 8 7 7 6 6 5 5 3 3 2 2
3 1 4 3 5 9 8 7 11 8 9 12 13 16 13 16 19 20 19 20 18 19 19 19 19 19 18 17 14 12 12 12 10 10 10 9 8 9 9 8 7 7 6 5 4 4 3 2 2
6 5 3 3 4 6 9 8 7 12 4 10 11 11 12 14 16 17 16 16 17 18 18 19 18 18 17 16 15 14 13 12 10 10 10 10 10 10 10 9 8 7 6 6 5 4 4 4 3
3 5 10 6 7 6 5 14 2 6 8 8 9 9 11 13 14 14 15 17 17 18 18 19 18 17 16 16 15 14 13 12 12 11 10 10 10 9 10 9 8 8 7 6 6 5 5 5 5
Wind_Direction
309 310 275 229 235 240 225 201 134 161 173 110 73 294 50 29 346 15 127 102 96 83 56 58 36 45 49 45 45 50 57 60 55 51 43 34 30 32 31 30 28 24 21 17 19 25 23 5 10
305 278 227 248 248 225 211 172 199 154 107 122 113 134 177 93 72 118 147 127 109 84 63 65 52 56 50 48 49 53 59 60 55 60 58 47 43 44 39 35 31 28 28 22 21 14 25 17 9
270 264 248 236 243 242 250 190 148 124 124 152 131 13 25 93 105 122 103 125 119 93 73 69 64 62 56 55 54 53 54 56 60 59 58 53 46 44 36 38 39 35 27 25 22 17 16 10 360
249 196 196 244 234 242 265 150 140 145 162 173 144 124 117 25 133 123 127 124 111 95 81 75 64 64 60 61 59 58 54 53 57 60 57 53 48 42 38 39 36 31 25 18 15 14 15 10 8
261 228 232 244 245 246 222 168 167 170 149 157 179 142 114 112 118 128 132 137 123 108 86 82 68 63 60 61 57 58 56 52 53 55 56 51 52 46 39 37 35 35 31 29 24 18 17 17 23
197 277 225 237 232 228 211 175 175 190 155 136 165 144 124 135 145 134 135 127 125 119 110 96 75 67 64 62 65 63 60 57 50 48 54 56 50 50 44 43 37 37 35 33 30 23 22 23 49
255 225 241 254 261 231 197 170 201 183 166 168 133 159 116 169 146 141 132 123 120 118 115 108 98 88 74 65 62 62 60 58 57 57 49 59 56 50 49 43 38 37 39 37 37 36 37 56 57
268 251 237 230 234 260 152 166 313 199 153 109 167 178 172 173 154 143 136 129 123 120 119 109 101 90 82 80 65 63 60 54 51 51 50 48 56 58 43 40 38 42 48 47 50 59 59 57 53
230 231 246 237 188 216 161 193 138 88 139 184 129 352 52 140 149 149 145 142 134 127 124 117 113 105 98 85 74 75 59 51 39 38 32 46 45 46 48 48 47 51 55 57 62 67 72 75 64
219 236 245 278 206 204 184 215 170 185 169 193 172 108 136 152 161 163 167 157 152 143 129 123 118 109 104 96 79 72 58 52 44 32 26 41 57 50 51 54 54 54 61 64 65 65 68 68 64
196 240 199 150 30 56 206 218 174 203 210 201 202 159 162 166 172 174 170 164 156 141 133 131 119 108 105 101 97 89 80 95 60 49 42 45 50 45 47 45 48 52 50 59 62 62 58 60 65
229 213 182 174 105 138 184 147 219 223 34 41 89 164 165 174 177 176 169 161 155 155 137 128 120 115 112 114 102 95 82 71 57 45 32 29 47 50 50 52 56 59 58 71 70 70 70 72 72
224 179 179 268 225 144 152 224 255 234 169 111 137 160 172 176 178 176 169 161 157 153 148 139 136 126 121 111 106 94 86 72 58 47 39 24 44 45 51 57 61 65 73 76 79 78 76 74 70
324 161 176 187 190 196 227 221 218 190 154 144 160 173 179 181 180 171 175 167 172 154 152 146 136 125 121 107 102 96 90 85 71 55 42 43 41 46 57 68 73 75 76 78 77 80 80 77 78
129 183 251 197 188 210 205 238 228 156 174 175 182 181 182 186 180 186 181 176 170 163 151 153 140 134 124 113 105 96 86 83 75 65 50 47 43 52 61 75 84 83 88 94 91 87 88 86 83
175 235 238 135 170 200 204 257 196 168 177 191 190 187 188 190 191 190 182 179 172 160 162 154 147 139 128 122 110 101 93 88 80 69 58 48 46 41 65 87 84 94 101 98 97 97 94 85 82
204 243 212 245 211 167 214 263 123 182 202 202 198 195 195 192 199 193 187 181 174 170 161 158 152 146 135 124 114 108 102 89 81 74 62 50 50 47 64 82 88 102 102 98 100 94 97 96 88
218 222 223 238 169 220 222 250 221 198 210 217 210 203 204 205 203 190 187 183 177 174 167 161 158 151 145 137 134 125 111 98 88 79 67 58 55 53 66 80 87 104 110 103 100 101 90 95 98
261 234 244 190 160 230 241 256 255 214 215 224 217 210 210 210 197 188 188 182 178 176 172 173 164 162 161 161 150 149 128 119 104 90 80 73 65 61 68 77 81 85 96 97 104 114 112 95 83
243 251 248 253 174 218 269 266 264 237 227 218 213 211 210 204 196 191 187 186 187 181 180 179 176 171 176 172 163 147 141 117 109 109 92 79 78 73 76 80 80 86 112 114 120 142 125 93 18
233 238 246 256 192 237 287 273 253 231 232 221 219 214 209 203 196 192 190 191 187 188 185 184 179 179 180 167 145 133 125 137 145 139 123 103 103 99 96 95 95 94 107 115 120 151 178 138 92
248 227 223 209 230 263 254 286 255 233 231 220 221 214 207 201 201 194 190 192 191 191 186 185 181 182 182 175 173 172 171 163 156 149 138 131 123 112 106 102 102 99 103 113 109 120 140 171 139
249 175 190 209 240 289 212 266 248 130 250 237 216 212 207 200 196 193 192 191 189 185 186 184 183 185 184 186 187 182 175 151 150 149 149 148 138 131 124 118 113 108 95 81 88 94 98 100 123
140 118 91 101 230 252 234 227 266 230 226 240 227 213 206 200 196 195 191 185 185 184 185 184 184 188 189 192 194 192 179 164 162 165 166 167 159 149 145 139 128 115 114 111 92 90 95 98 92
208 170 196 222 207 256 117 228 255 300 256 238 247 219 208 198 192 191 185 183 183 184 184 183 185 189 191 194 197 198 192 180 178 173 176 167 168 168 164 157 143 131 130 123 120 107 89 82 89
188 233 213 252 224 284 144 239 254 249 292 268 255 261 208 196 192 190 185 183 183 184 183 182 184 189 190 193 198 197 197 192 190 186 179 180 178 173 163 154 143 138 134 125 122 118 105 92 78
170 215 52 43 120 267 230 256 270 258 267 254 252 228 213 203 193 187 183 186 183 182 184 183 183 188 188 192 194 194 195 194 194 190 185 178 171 161 163 156 152 149 140 136 138 140 136 131 116
277 69 161 195 244 248 241 261 248 283 251 242 234 230 220 197 190 186 184 184 183 184 182 185 185 186 185 187 190 192 195 198 198 189 187 183 174 167 165 166 167 163 156 155 168 166 167 186 169
169 201 211 298 233 261 282 261 222 244 336 291 283 241 219 206 193 186 181 182 181 181 181 186 187 185 186 187 187 188 190 192 192 193 190 186 178 174 174 177 177 175 175 178 190 200 198 218 219
331 225 188 222 212 244 289 260 225 269 281 282 285 245 211 196 191 184 179 181 184 185 184 189 188 188 187 185 186 189 188 185 188 191 189 185 185 181 180 179 181 183 186 189 205 214 220 233 242